Time,TemperatureF,DewpointF,PressureIn,WindDirection,WindDirectionDegrees,WindSpeedMPH,WindSpeedGustMPH,Humidity,HourlyPrecipIn,Conditions,Clouds,dailyrainin,SoftwareType,DateUTC
2013-06-03 00:03:00,72.0,70.0,29.83,North,0,0.0,-999.0,94,-99.99,,,-99.99,,2013-06-03 04:03:00,
2013-06-03 00:13:00,72.0,70.0,29.83,North,0,0.0,-999.0,94,-99.99,,,-99.99,,2013-06-03 04:13:00,
2013-06-03 00:23:00,72.0,70.0,29.82,North,0,0.0,-999.0,94,-99.99,,,-99.99,,2013-06-03 04:23:00,
2013-06-03 00:33:00,72.0,70.0,29.82,North,0,0.0,-999.0,94,-99.99,,,-99.99,,2013-06-03 04:33:00,
2013-06-03 00:42:00,72.0,70.0,29.83,North,0,0.0,-999.0,94,-99.99,,,-99.99,,2013-06-03 04:42:00,
2013-06-03 00:53:00,72.0,70.0,29.83,North,0,0.0,-999.0,94,-99.99,,,-99.99,,2013-06-03 04:53:00,
2013-06-03 01:02:00,72.0,70.0,29.83,North,0,0.0,-999.0,94,-99.99,,,-99.99,,2013-06-03 05:02:00,
2013-06-03 01:12:00,72.0,70.0,29.83,North,0,0.0,-999.0,94,-99.99,,,-99.99,,2013-06-03 05:12:00,
2013-06-03 01:22:00,72.0,70.0,29.82,North,0,0.0,-999.0,94,-99.99,,,-99.99,,2013-06-03 05:22:00,
2013-06-03 01:32:00,72.0,70.0,29.82,North,0,0.0,-999.0,94,-99.99,,,-99.99,,2013-06-03 05:32:00,
2013-06-03 01:43:00,72.0,70.0,29.82,North,0,0.0,-999.0,94,-99.99,,,-99.99,,2013-06-03 05:43:00,
2013-06-03 01:52:00,70.0,70.0,29.83,North,0,0.0,-999.0,100,-99.99,,,-99.99,,2013-06-03 05:52:00,
2013-06-03 02:02:00,70.0,70.0,29.83,North,0,0.0,-999.0,100,-99.99,,,-99.99,,2013-06-03 06:02:00,
2013-06-03 02:12:00,70.0,70.0,29.83,North,0,0.0,-999.0,100,-99.99,,,-99.99,,2013-06-03 06:12:00,
2013-06-03 02:22:00,70.0,70.0,29.82,North,0,0.0,-999.0,100,-99.99,,,-99.99,,2013-06-03 06:22:00,
2013-06-03 02:32:00,70.0,68.0,29.82,North,0,0.0,-999.0,94,-99.99,,,-99.99,,2013-06-03 06:32:00,
2013-06-03 02:42:00,70.0,70.0,29.82,North,0,0.0,-999.0,100,-99.99,,,-99.99,,2013-06-03 06:42:00,
2013-06-03 02:52:00,70.0,70.0,29.80,North,0,0.0,-999.0,100,-99.99,,,-99.99,,2013-06-03 06:52:00,
2013-06-03 03:02:00,70.0,68.0,29.80,North,0,0.0,-999.0,94,-99.99,,,-99.99,,2013-06-03 07:02:00,
2013-06-03 03:12:00,70.0,68.0,29.80,North,0,0.0,-999.0,94,-99.99,,,-99.99,,2013-06-03 07:12:00,
2013-06-03 03:22:00,70.0,68.0,29.81,North,0,0.0,-999.0,94,-99.99,,,-99.99,,2013-06-03 07:22:00,
2013-06-03 03:32:00,70.0,68.0,29.82,SSE,150,3.0,-999.0,94,-99.99,,,-99.99,,2013-06-03 07:32:00,
2013-06-03 03:42:00,70.0,68.0,29.82,SSE,160,3.0,-999.0,94,-99.99,,,-99.99,,2013-06-03 07:42:00,
2013-06-03 03:52:00,70.0,68.0,29.82,North,0,0.0,-999.0,94,-99.99,,,-99.99,,2013-06-03 07:52:00,
2013-06-03 04:02:00,70.0,68.0,29.82,North,0,0.0,-999.0,94,-99.99,,,-99.99,,2013-06-03 08:02:00,
2013-06-03 04:12:00,70.0,68.0,29.82,North,0,0.0,-999.0,94,-99.99,,,-99.99,,2013-06-03 08:12:00,
2013-06-03 04:22:00,70.0,68.0,29.82,North,0,0.0,-999.0,94,-99.99,,,-99.99,,2013-06-03 08:22:00,
2013-06-03 04:32:00,70.0,68.0,29.82,North,0,0.0,-999.0,94,-99.99,,,-99.99,,2013-06-03 08:32:00,
2013-06-03 04:42:00,70.0,68.0,29.83,North,0,0.0,-999.0,94,-99.99,,,-99.99,,2013-06-03 08:42:00,
2013-06-03 04:52:00,70.0,68.0,29.83,North,0,0.0,-999.0,94,-99.99,,,-99.99,,2013-06-03 08:52:00,
2013-06-03 05:02:00,70.0,68.0,29.83,North,0,0.0,-999.0,94,-99.99,,,-99.99,,2013-06-03 09:02:00,
2013-06-03 05:12:00,70.0,68.0,29.83,North,0,0.0,-999.0,94,-99.99,,,-99.99,,2013-06-03 09:12:00,
2013-06-03 05:22:00,70.0,68.0,29.84,North,0,0.0,-999.0,94,-99.99,,,-99.99,,2013-06-03 09:22:00,
2013-06-03 05:33:00,70.0,68.0,29.84,North,0,0.0,-999.0,94,-99.99,,,-99.99,,2013-06-03 09:33:00,
2013-06-03 05:42:00,70.0,68.0,29.83,North,0,0.0,-999.0,94,-99.99,,,-99.99,,2013-06-03 09:42:00,
2013-06-03 05:52:00,70.0,68.0,29.83,North,0,0.0,-999.0,94,-99.99,,,-99.99,,2013-06-03 09:52:00,
2013-06-03 06:03:00,70.0,68.0,29.83,North,0,0.0,-999.0,94,-99.99,,,-99.99,,2013-06-03 10:03:00,
2013-06-03 06:13:00,70.0,68.0,29.83,North,0,0.0,-999.0,94,-99.99,,,-99.99,,2013-06-03 10:13:00,
2013-06-03 06:22:00,70.0,68.0,29.83,NE,40,3.0,-999.0,94,-99.99,,,-99.99,,2013-06-03 10:22:00,
2013-06-03 06:33:00,70.0,66.0,29.83,NNE,30,5.0,-999.0,88,-99.99,,,-99.99,,2013-06-03 10:33:00,
2013-06-03 06:42:00,70.0,66.0,29.84,NNE,30,3.0,-999.0,88,-99.99,,,-99.99,,2013-06-03 10:42:00,
2013-06-03 06:52:00,70.0,66.0,29.83,NE,40,8.0,-999.0,88,-99.99,,,-99.99,,2013-06-03 10:52:00,
2013-06-03 07:02:00,70.0,66.0,29.84,NNE,30,5.0,-999.0,88,-99.99,,,-99.99,,2013-06-03 11:02:00,
2013-06-03 07:12:00,70.0,64.0,29.85,NNE,20,6.0,-999.0,82,-99.99,,,-99.99,,2013-06-03 11:12:00,
2013-06-03 07:22:00,68.0,64.0,29.86,NNE,20,6.0,-999.0,88,-99.99,,,-99.99,,2013-06-03 11:22:00,
2013-06-03 07:32:00,68.0,64.0,29.85,NNE,30,6.0,-999.0,88,-99.99,,,-99.99,,2013-06-03 11:32:00,
2013-06-03 07:42:00,68.0,64.0,29.85,NNE,30,5.0,-999.0,88,-99.99,,,-99.99,,2013-06-03 11:42:00,
2013-06-03 07:52:00,68.0,64.0,29.87,NNE,30,5.0,-999.0,88,-99.99,,,-99.99,,2013-06-03 11:52:00,
2013-06-03 08:02:00,68.0,64.0,29.87,NNE,20,5.0,-999.0,88,-99.99,,,-99.99,,2013-06-03 12:02:00,
2013-06-03 08:12:00,68.0,64.0,29.88,North,360,6.0,-999.0,88,-99.99,,,-99.99,,2013-06-03 12:12:00,
2013-06-03 08:22:00,68.0,63.0,29.88,North,10,12.0,-999.0,82,-99.99,,,-99.99,,2013-06-03 12:22:00,
2013-06-03 08:32:00,66.0,63.0,29.88,NNE,30,9.0,-999.0,88,-99.99,,,-99.99,,2013-06-03 12:32:00,
2013-06-03 08:42:00,66.0,63.0,29.88,NNE,30,6.0,-999.0,88,-99.99,,,-99.99,,2013-06-03 12:42:00,
2013-06-03 08:52:00,66.0,63.0,29.88,ENE,60,6.0,-999.0,88,-99.99,,,-99.99,,2013-06-03 12:52:00,
2013-06-03 09:02:00,66.0,63.0,29.88,NE,50,6.0,-999.0,88,-99.99,,,-99.99,,2013-06-03 13:02:00,
2013-06-03 09:12:00,66.0,63.0,29.88,NE,50,6.0,-999.0,88,-99.99,,,-99.99,,2013-06-03 13:12:00,
2013-06-03 09:22:00,68.0,63.0,29.88,NNE,30,8.0,-999.0,82,-99.99,,,-99.99,,2013-06-03 13:22:00,
2013-06-03 09:32:00,68.0,63.0,29.89,NNE,30,7.0,-999.0,82,-99.99,,,-99.99,,2013-06-03 13:32:00,
2013-06-03 09:42:00,68.0,63.0,29.89,NNE,30,6.0,-999.0,82,-99.99,,,-99.99,,2013-06-03 13:42:00,
2013-06-03 09:52:00,70.0,63.0,29.89,NNE,30,9.0,-999.0,77,-99.99,,,-99.99,,2013-06-03 13:52:00,
2013-06-03 10:02:00,70.0,63.0,29.89,NNE,30,9.0,-999.0,77,-99.99,,,-99.99,,2013-06-03 14:02:00,
2013-06-03 10:13:00,70.0,63.0,29.89,NNE,20,9.0,-999.0,77,-99.99,,,-99.99,,2013-06-03 14:13:00,
2013-06-03 10:22:00,70.0,61.0,29.89,NE,40,9.0,-999.0,73,-99.99,,,-99.99,,2013-06-03 14:22:00,
2013-06-03 10:32:00,70.0,61.0,29.89,North,10,7.0,10.0,73,-99.99,,,-99.99,,2013-06-03 14:32:00,
2013-06-03 10:42:00,70.0,61.0,29.89,NNE,20,8.0,-999.0,73,-99.99,,,-99.99,,2013-06-03 14:42:00,
2013-06-03 10:52:00,70.0,61.0,29.90,NNE,20,10.0,-999.0,73,-99.99,,,-99.99,,2013-06-03 14:52:00,
2013-06-03 11:02:00,70.0,61.0,29.90,NE,40,9.0,16.0,73,-99.99,,,-99.99,,2013-06-03 15:02:00,
2013-06-03 11:12:00,70.0,61.0,29.90,NNE,20,10.0,-999.0,73,-99.99,,,-99.99,,2013-06-03 15:12:00,
2013-06-03 11:22:00,70.0,61.0,29.90,NE,40,10.0,-999.0,73,-99.99,,,-99.99,,2013-06-03 15:22:00,
2013-06-03 11:33:00,72.0,61.0,29.90,NNE,30,9.0,-999.0,68,-99.99,,,-99.99,,2013-06-03 15:33:00,
2013-06-03 11:43:00,72.0,61.0,29.90,NNE,30,10.0,-999.0,68,-99.99,,,-99.99,,2013-06-03 15:43:00,
2013-06-03 11:53:00,72.0,61.0,29.89,North,10,9.0,-999.0,68,-99.99,,,-99.99,,2013-06-03 15:53:00,
2013-06-03 12:03:00,72.0,61.0,29.89,NNE,20,9.0,-999.0,68,-99.99,,,-99.99,,2013-06-03 16:03:00,
2013-06-03 12:13:00,72.0,59.0,29.89,NNE,20,8.0,-999.0,64,-99.99,,,-99.99,,2013-06-03 16:13:00,
2013-06-03 12:23:00,72.0,59.0,29.89,NE,40,10.0,18.0,64,-99.99,,,-99.99,,2013-06-03 16:23:00,
2013-06-03 12:33:00,72.0,59.0,29.89,NNE,30,13.0,-999.0,64,-99.99,,,-99.99,,2013-06-03 16:33:00,
2013-06-03 12:42:00,72.0,59.0,29.89,NNE,20,12.0,-999.0,64,-99.99,,,-99.99,,2013-06-03 16:42:00,
2013-06-03 12:53:00,72.0,61.0,29.88,NE,40,7.0,-999.0,68,-99.99,,,-99.99,,2013-06-03 16:53:00,
2013-06-03 13:02:00,72.0,61.0,29.88,NNE,30,12.0,-999.0,68,-99.99,,,-99.99,,2013-06-03 17:02:00,
2013-06-03 13:12:00,73.0,61.0,29.88,North,10,12.0,-999.0,64,-99.99,,,-99.99,,2013-06-03 17:12:00,
2013-06-03 13:22:00,73.0,59.0,29.88,NE,50,5.0,-999.0,60,-99.99,,,-99.99,,2013-06-03 17:22:00,
2013-06-03 13:33:00,73.0,61.0,29.88,North,10,7.0,-999.0,64,-99.99,,,-99.99,,2013-06-03 17:33:00,
2013-06-03 13:42:00,73.0,61.0,29.87,North,350,8.0,-999.0,64,-99.99,,,-99.99,,2013-06-03 17:42:00,
2013-06-03 13:52:00,75.0,59.0,29.87,North,10,8.0,-999.0,57,-99.99,,,-99.99,,2013-06-03 17:52:00,
2013-06-03 14:02:00,75.0,59.0,29.87,North,360,7.0,-999.0,57,-99.99,,,-99.99,,2013-06-03 18:02:00,
2013-06-03 14:12:00,75.0,59.0,29.86,NNE,30,6.0,-999.0,57,-99.99,,,-99.99,,2013-06-03 18:12:00,
2013-06-03 14:22:00,75.0,59.0,29.85,North,360,7.0,-999.0,57,-99.99,,,-99.99,,2013-06-03 18:22:00,
2013-06-03 14:32:00,77.0,59.0,29.85,NNE,30,5.0,-999.0,53,-99.99,,,-99.99,,2013-06-03 18:32:00,
2013-06-03 14:43:00,75.0,59.0,29.85,NNE,30,8.0,-999.0,57,-99.99,,,-99.99,,2013-06-03 18:43:00,
2013-06-03 14:52:00,75.0,59.0,29.85,NE,40,9.0,-999.0,57,-99.99,,,-99.99,,2013-06-03 18:52:00,
2013-06-03 15:03:00,75.0,61.0,29.85,NNE,20,8.0,-999.0,60,-99.99,,,-99.99,,2013-06-03 19:03:00,
2013-06-03 15:12:00,77.0,61.0,29.86,North,10,9.0,-999.0,57,-99.99,,,-99.99,,2013-06-03 19:12:00,
2013-06-03 15:22:00,77.0,59.0,29.85,North,10,12.0,-999.0,53,-99.99,,,-99.99,,2013-06-03 19:22:00,
2013-06-03 15:32:00,75.0,59.0,29.85,North,350,7.0,-999.0,57,-99.99,,,-99.99,,2013-06-03 19:32:00,
2013-06-03 15:42:00,75.0,61.0,29.85,NNE,30,12.0,-999.0,60,-99.99,,,-99.99,,2013-06-03 19:42:00,
2013-06-03 15:52:00,75.0,61.0,29.85,NNE,20,9.0,-999.0,60,-99.99,,,-99.99,,2013-06-03 19:52:00,
2013-06-03 16:02:00,75.0,59.0,29.85,NNE,20,7.0,-999.0,57,-99.99,,,-99.99,,2013-06-03 20:02:00,
2013-06-03 16:12:00,75.0,61.0,29.85,NE,40,10.0,-999.0,60,-99.99,,,-99.99,,2013-06-03 20:12:00,
2013-06-03 16:22:00,77.0,61.0,29.85,North,10,8.0,-999.0,57,-99.99,,,-99.99,,2013-06-03 20:22:00,
2013-06-03 16:33:00,77.0,61.0,29.85,NE,40,9.0,-999.0,57,-99.99,,,-99.99,,2013-06-03 20:33:00,
2013-06-03 16:42:00,77.0,61.0,29.84,NNE,20,7.0,-999.0,57,-99.99,,,-99.99,,2013-06-03 20:42:00,
2013-06-03 16:52:00,77.0,59.0,29.85,NE,40,12.0,-999.0,53,-99.99,,,-99.99,,2013-06-03 20:52:00,
2013-06-03 17:02:00,75.0,61.0,29.84,NE,40,8.0,-999.0,60,-99.99,,,-99.99,,2013-06-03 21:02:00,
2013-06-03 17:12:00,77.0,59.0,29.85,NNE,30,12.0,-999.0,53,-99.99,,,-99.99,,2013-06-03 21:12:00,
2013-06-03 17:22:00,75.0,57.0,29.85,NE,40,12.0,16.0,53,-99.99,,,-99.99,,2013-06-03 21:22:00,
2013-06-03 17:33:00,75.0,57.0,29.85,NE,40,13.0,16.0,53,-99.99,,,-99.99,,2013-06-03 21:33:00,
2013-06-03 17:43:00,75.0,59.0,29.85,NNE,20,8.0,16.0,57,-99.99,,,-99.99,,2013-06-03 21:43:00,
2013-06-03 17:53:00,73.0,57.0,29.85,NNE,30,9.0,-999.0,56,-99.99,,,-99.99,,2013-06-03 21:53:00,
2013-06-03 18:03:00,73.0,57.0,29.85,NNE,20,9.0,-999.0,56,-99.99,,,-99.99,,2013-06-03 22:03:00,
2013-06-03 18:12:00,73.0,57.0,29.85,NNE,20,9.0,-999.0,56,-99.99,,,-99.99,,2013-06-03 22:12:00,
2013-06-03 18:22:00,72.0,57.0,29.85,NE,40,8.0,-999.0,60,-99.99,,,-99.99,,2013-06-03 22:22:00,
2013-06-03 18:33:00,72.0,57.0,29.85,NE,40,9.0,-999.0,60,-99.99,,,-99.99,,2013-06-03 22:33:00,
2013-06-03 18:42:00,72.0,57.0,29.85,NE,40,8.0,-999.0,60,-99.99,,,-99.99,,2013-06-03 22:42:00,
2013-06-03 18:52:00,72.0,55.0,29.85,NNE,30,12.0,-999.0,56,-99.99,,,-99.99,,2013-06-03 22:52:00,
2013-06-03 19:02:00,72.0,55.0,29.85,NNE,20,8.0,-999.0,56,-99.99,,,-99.99,,2013-06-03 23:02:00,
2013-06-03 19:12:00,72.0,55.0,29.85,NNE,20,9.0,-999.0,56,-99.99,,,-99.99,,2013-06-03 23:12:00,
2013-06-03 19:22:00,72.0,55.0,29.86,NNE,30,9.0,-999.0,56,-99.99,,,-99.99,,2013-06-03 23:22:00,
2013-06-03 19:32:00,72.0,55.0,29.86,NNE,20,9.0,-999.0,56,-99.99,,,-99.99,,2013-06-03 23:32:00,
2013-06-03 19:42:00,72.0,54.0,29.87,NNE,20,8.0,-999.0,53,-99.99,,,-99.99,,2013-06-03 23:42:00,
2013-06-03 19:52:00,72.0,54.0,29.87,NNE,20,9.0,-999.0,53,-99.99,,,-99.99,,2013-06-03 23:52:00,
2013-06-03 20:02:00,70.0,52.0,29.87,NNE,20,7.0,-999.0,52,-99.99,,,-99.99,,2013-06-04 00:02:00,
2013-06-03 20:12:00,70.0,52.0,29.87,NNE,20,7.0,-999.0,52,-99.99,,,-99.99,,2013-06-04 00:12:00,
2013-06-03 20:22:00,68.0,52.0,29.88,North,10,8.0,-999.0,56,-99.99,,,-99.99,,2013-06-04 00:22:00,
2013-06-03 20:32:00,66.0,52.0,29.88,North,10,6.0,-999.0,59,-99.99,,,-99.99,,2013-06-04 00:32:00,
2013-06-03 20:42:00,66.0,52.0,29.89,North,360,8.0,-999.0,59,-99.99,,,-99.99,,2013-06-04 00:42:00,
2013-06-03 20:52:00,66.0,50.0,29.89,NNE,30,5.0,-999.0,55,-99.99,,,-99.99,,2013-06-04 00:52:00,
2013-06-03 21:02:00,66.0,50.0,29.89,NNE,20,7.0,-999.0,55,-99.99,,,-99.99,,2013-06-04 01:02:00,
2013-06-03 21:12:00,64.0,50.0,29.89,NNE,20,6.0,-999.0,59,-99.99,,,-99.99,,2013-06-04 01:12:00,
2013-06-03 21:22:00,64.0,48.0,29.90,NNE,20,6.0,-999.0,55,-99.99,,,-99.99,,2013-06-04 01:22:00,
2013-06-03 21:32:00,64.0,48.0,29.91,North,10,6.0,-999.0,55,-99.99,,,-99.99,,2013-06-04 01:32:00,
2013-06-03 21:42:00,64.0,48.0,29.91,North,10,6.0,-999.0,55,-99.99,,,-99.99,,2013-06-04 01:42:00,
2013-06-03 21:52:00,63.0,48.0,29.92,North,10,5.0,-999.0,59,-99.99,,,-99.99,,2013-06-04 01:52:00,
2013-06-03 22:02:00,63.0,48.0,29.92,NNE,30,3.0,-999.0,59,-99.99,,,-99.99,,2013-06-04 02:02:00,
2013-06-03 22:12:00,63.0,48.0,29.92,NNE,30,3.0,-999.0,59,-99.99,,,-99.99,,2013-06-04 02:12:00,
2013-06-03 22:22:00,61.0,48.0,29.93,North,0,0.0,-999.0,63,-99.99,,,-99.99,,2013-06-04 02:22:00,
2013-06-03 22:32:00,61.0,48.0,29.93,North,0,0.0,-999.0,63,-99.99,,,-99.99,,2013-06-04 02:32:00,
2013-06-03 22:42:00,57.0,48.0,29.94,North,0,0.0,-999.0,71,-99.99,,,-99.99,,2013-06-04 02:42:00,
2013-06-03 22:52:00,57.0,48.0,29.94,North,0,0.0,-999.0,71,-99.99,,,-99.99,,2013-06-04 02:52:00,
2013-06-03 23:02:00,57.0,48.0,29.94,North,0,0.0,-999.0,71,-99.99,,,-99.99,,2013-06-04 03:02:00,
2013-06-03 23:12:00,55.0,46.0,29.94,North,0,0.0,-999.0,71,-99.99,,,-99.99,,2013-06-04 03:12:00,
2013-06-03 23:22:00,55.0,48.0,29.94,North,0,0.0,-999.0,76,-99.99,,,-99.99,,2013-06-04 03:22:00,
2013-06-03 23:32:00,55.0,48.0,29.95,North,0,0.0,-999.0,76,-99.99,,,-99.99,,2013-06-04 03:32:00,
2013-06-03 23:43:00,55.0,48.0,29.95,North,0,0.0,-999.0,76,-99.99,,,-99.99,,2013-06-04 03:43:00,
2013-06-03 23:53:00,54.0,48.0,29.95,North,0,0.0,-999.0,81,-99.99,,,-99.99,,2013-06-04 03:53:00,